When you browse on this site, cookies collect data to enhance your experience and personalize the content and advertising you see.
Visit our Privacy Policy to learn more. By continuing to use the site, you agree to this use of cookies and data.
  • în România
  • Lista ţărilor
  • Pe 7 zile
  • Temperatura apei
  • Meteo pe hartă
  • Widget-uri
  • user-avatar
    Intrare

    Meteo pe oră la Valletta

    Astăzi, 12 Noiembrie, Marţi

    Timp Temperatura Precipitaţii Vânt Presiune Umiditate
    00:00 +16°C° 2 mm 8 m/s 741 mmHg 84%
    01:00 +15°C° 2 mm 7 m/s 740 mmHg 83%
    02:00 +15°C° 2 mm 8 m/s 740 mmHg 82%
    03:00 +15°C° 2 mm 8 m/s 740 mmHg 81%
    04:00 +15°C° 2 mm 9 m/s 739 mmHg 81%
    05:00 +16°C° 0.7 mm 11 m/s 740 mmHg 76%
    06:00 +15°C° 0.7 mm 13 m/s 740 mmHg 71%
    07:00 +15°C° 0.7 mm 15 m/s 740 mmHg 66%
    08:00 +15°C° 0.4 mm 15 m/s 740 mmHg 68%
    09:00 +15°C° 0.4 mm 16 m/s 741 mmHg 69%
    10:00 +15°C° 0.4 mm 16 m/s 742 mmHg 71%
    11:00 +15°C° 0.4 mm 15 m/s 741 mmHg 70%
    12:00 +15°C° 0.4 mm 15 m/s 741 mmHg 70%
    13:00 +15°C° 0.4 mm 15 m/s 741 mmHg 69%
    14:00 +15°C° 0.5 mm 15 m/s 741 mmHg 68%
    15:00 +17°C° 0.5 mm 14 m/s 741 mmHg 67%
    16:00 +17°C° 0.5 mm 14 m/s 740 mmHg 66%
    17:00 +17°C° 0.5 mm 14 m/s 741 mmHg 68%
    18:00 +17°C° 0.5 mm 13 m/s 741 mmHg 69%
    19:00 +17°C° 0.5 mm 13 m/s 741 mmHg 71%
    20:00 +17°C° 0.7 mm 13 m/s 742 mmHg 70%
    21:00 +17°C° 0.7 mm 13 m/s 742 mmHg 69%
    22:00 +18°C° 0.7 mm 13 m/s 742 mmHg 69%
    23:00 +18°C° 0 mm 13 m/s 743 mmHg 69%

    Mâine, 13 Noiembrie, Miercuri

    Timp Temperatura Precipitaţii Vânt Presiune Umiditate
    00:00 +17°C° 0 mm 13 m/s 743 mmHg 69%
    01:00 +17°C° 0 mm 13 m/s 744 mmHg 68%
    02:00 +17°C° 0 mm 13 m/s 744 mmHg 68%
    03:00 +17°C° 0 mm 13 m/s 744 mmHg 68%
    04:00 +17°C° 0 mm 12 m/s 744 mmHg 68%
    05:00 +18°C° 0.1 mm 12 m/s 745 mmHg 67%
    06:00 +18°C° 0.1 mm 12 m/s 745 mmHg 67%
    07:00 +18°C° 0.1 mm 11 m/s 745 mmHg 67%
    08:00 +18°C° 0.2 mm 11 m/s 746 mmHg 66%
    09:00 +18°C° 0.2 mm 11 m/s 746 mmHg 65%
    10:00 +18°C° 0.2 mm 10 m/s 747 mmHg 64%
    11:00 +18°C° 0.3 mm 11 m/s 747 mmHg 65%
    12:00 +18°C° 0.3 mm 11 m/s 747 mmHg 65%
    13:00 +18°C° 0.3 mm 11 m/s 748 mmHg 66%
    14:00 +18°C° 0.3 mm 11 m/s 748 mmHg 65%
    15:00 +18°C° 0.3 mm 11 m/s 748 mmHg 65%
    16:00 +18°C° 0.3 mm 11 m/s 748 mmHg 64%
    17:00 +18°C° 0.1 mm 10 m/s 748 mmHg 65%
    18:00 +18°C° 0.1 mm 10 m/s 749 mmHg 66%
    19:00 +18°C° 0.1 mm 9 m/s 749 mmHg 66%
    20:00 +18°C° 0 mm 9 m/s 749 mmHg 65%
    21:00 +18°C° 0 mm 8 m/s 750 mmHg 64%
    22:00 +18°C° 0 mm 8 m/s 750 mmHg 62%
    23:00 +18°C° 0 mm 8 m/s 750 mmHg 62%

    Poimâine, 14 Noiembrie, Joi

    Timp Temperatura Precipitaţii Vânt Presiune Umiditate
    00:00 +18°C° 0 mm 9 m/s 750 mmHg 62%
    01:00 +19°C° 0 mm 9 m/s 749 mmHg 61%
    02:00 +19°C° 0 mm 9 m/s 749 mmHg 61%
    03:00 +19°C° 0 mm 10 m/s 749 mmHg 60%
    04:00 +19°C° 0 mm 10 m/s 749 mmHg 60%
    05:00 +19°C° 0.1 mm 10 m/s 749 mmHg 62%
    06:00 +18°C° 0.1 mm 10 m/s 748 mmHg 63%
    07:00 +18°C° 0.1 mm 10 m/s 748 mmHg 65%
    08:00 +19°C° 0.3 mm 10 m/s 749 mmHg 65%
    09:00 +19°C° 0.3 mm 10 m/s 749 mmHg 65%
    10:00 +19°C° 0.3 mm 9 m/s 749 mmHg 65%
    11:00 +19°C° 0.1 mm 9 m/s 749 mmHg 67%
    12:00 +19°C° 0.1 mm 10 m/s 749 mmHg 69%
    13:00 +19°C° 0.1 mm 10 m/s 749 mmHg 71%
    14:00 +19°C° 0.1 mm 9 m/s 749 mmHg 71%
    15:00 +18°C° 0.1 mm 9 m/s 749 mmHg 71%
    16:00 +18°C° 0.1 mm 8 m/s 749 mmHg 72%
    17:00 +18°C° 0 mm 7 m/s 750 mmHg 70%
    18:00 +18°C° 0 mm 7 m/s 750 mmHg 68%
    19:00 +19°C° 0 mm 6 m/s 750 mmHg 65%
    20:00 +20°C° 0 mm 6 m/s 751 mmHg 65%
    21:00 +20°C° 0 mm 6 m/s 751 mmHg 64%
    22:00 +20°C° 0 mm 6 m/s 751 mmHg 63%
    23:00 +20°C° 0 mm 6 m/s 751 mmHg 64%

    15 Noiembrie, Vineri

    Timp Temperatura Precipitaţii Vânt Presiune Umiditate
    00:00 +20°C° 0 mm 6 m/s 751 mmHg 65%
    01:00 +20°C° 0 mm 7 m/s 751 mmHg 65%
    02:00 +20°C° 0 mm 7 m/s 751 mmHg 64%
    03:00 +20°C° 0 mm 7 m/s 751 mmHg 63%
    04:00 +21°C° 0 mm 7 m/s 750 mmHg 61%
    05:00 +21°C° 0 mm 7 m/s 750 mmHg 61%
    06:00 +21°C° 0 mm 8 m/s 751 mmHg 60%
    07:00 +21°C° 0 mm 8 m/s 751 mmHg 60%
    08:00 +21°C° 0 mm 8 m/s 751 mmHg 60%
    09:00 +21°C° 0 mm 8 m/s 751 mmHg 60%
    10:00 +21°C° 0 mm 8 m/s 751 mmHg 60%
    11:00 +21°C° 0 mm 8 m/s 751 mmHg 61%
    12:00 +22°C° 0 mm 8 m/s 751 mmHg 62%
    13:00 +22°C° 0 mm 8 m/s 751 mmHg 62%
    14:00 +22°C° 0 mm 8 m/s 751 mmHg 62%
    15:00 +22°C° 0 mm 8 m/s 751 mmHg 63%
    16:00 +22°C° 0 mm 8 m/s 750 mmHg 63%
    17:00 +22°C° 0 mm 8 m/s 751 mmHg 63%
    18:00 +22°C° 0 mm 7 m/s 751 mmHg 63%
    19:00 +22°C° 0 mm 7 m/s 751 mmHg 64%
    20:00 +22°C° 0 mm 7 m/s 751 mmHg 64%
    21:00 +22°C° 0 mm 8 m/s 751 mmHg 64%
    22:00 +22°C° 0 mm 8 m/s 751 mmHg 65%
    23:00 +22°C° 0 mm 8 m/s 751 mmHg 65%

    16 Noiembrie, Sâmbătă

    Timp Temperatura Precipitaţii Vânt Presiune Umiditate
    00:00 +22°C° 0 mm 9 m/s 751 mmHg 66%
    01:00 +22°C° 0 mm 9 m/s 751 mmHg 66%
    02:00 +22°C° 0 mm 9 m/s 750 mmHg 66%
    03:00 +22°C° 0 mm 9 m/s 750 mmHg 66%
    04:00 +22°C° 0 mm 9 m/s 750 mmHg 66%
    05:00 +22°C° 0 mm 10 m/s 750 mmHg 66%
    06:00 +22°C° 0 mm 10 m/s 749 mmHg 67%
    07:00 +22°C° 0 mm 10 m/s 749 mmHg 67%
    08:00 +22°C° 0 mm 11 m/s 749 mmHg 66%
    09:00 +22°C° 0 mm 11 m/s 749 mmHg 65%
    10:00 +22°C° 0 mm 12 m/s 749 mmHg 65%
    11:00 +22°C° 0 mm 12 m/s 749 mmHg 64%
    12:00 +22°C° 0 mm 12 m/s 748 mmHg 63%
    13:00 +22°C° 0 mm 12 m/s 748 mmHg 62%
    14:00 +22°C° 0 mm 12 m/s 748 mmHg 63%
    15:00 +22°C° 0 mm 12 m/s 747 mmHg 64%
    16:00 +22°C° 0 mm 12 m/s 747 mmHg 65%
    17:00 +22°C° 0 mm 12 m/s 747 mmHg 65%
    18:00 +22°C° 0 mm 12 m/s 747 mmHg 65%
    19:00 +22°C° 0 mm 12 m/s 747 mmHg 65%
    20:00 +22°C° 0 mm 12 m/s 747 mmHg 66%
    21:00 +22°C° 0 mm 12 m/s 747 mmHg 66%
    22:00 +22°C° 0 mm 12 m/s 747 mmHg 67%
    23:00 +22°C° 0 mm 11 m/s 747 mmHg 67%

    17 Noiembrie, Duminică

    Timp Temperatura Precipitaţii Vânt Presiune Umiditate
    00:00 +22°C° 0 mm 10 m/s 747 mmHg 67%
    01:00 +21°C° 0 mm 8 m/s 747 mmHg 66%
    02:00 +20°C° 0 mm 8 m/s 747 mmHg 70%
    03:00 +20°C° 0 mm 8 m/s 747 mmHg 73%
    04:00 +18°C° 0 mm 8 m/s 747 mmHg 77%
    05:00 +18°C° 0 mm 8 m/s 748 mmHg 76%
    06:00 +17°C° 0 mm 9 m/s 748 mmHg 75%
    07:00 +17°C° 0 mm 9 m/s 749 mmHg 73%
    08:00 +17°C° 0 mm 9 m/s 750 mmHg 72%
    09:00 +17°C° 0 mm 9 m/s 751 mmHg 70%
    10:00 +16°C° 0 mm 9 m/s 751 mmHg 68%
    11:00 +16°C° 0 mm 9 m/s 752 mmHg 68%
    12:00 +16°C° 0 mm 9 m/s 752 mmHg 68%
    13:00 +16°C° 0 mm 10 m/s 752 mmHg 67%
    14:00 +17°C° 0 mm 10 m/s 752 mmHg 66%
    15:00 +17°C° 0 mm 9 m/s 753 mmHg 66%
    16:00 +17°C° 0 mm 9 m/s 753 mmHg 65%
    17:00 +17°C° 0 mm 9 m/s 753 mmHg 65%
    18:00 +17°C° 0 mm 8 m/s 754 mmHg 66%
    19:00 +17°C° 0 mm 8 m/s 754 mmHg 66%
    20:00 +17°C° 0 mm 7 m/s 755 mmHg 65%
    21:00 +17°C° 0 mm 7 m/s 755 mmHg 63%
    22:00 +17°C° 0 mm 6 m/s 756 mmHg 62%
    23:00 +17°C° 0 mm 6 m/s 756 mmHg 61%
    Arată mai mult